Time,TemperatureF,DewpointF,PressureIn,WindDirection,WindDirectionDegrees,WindSpeedMPH,WindSpeedGustMPH,Humidity,HourlyPrecipIn,Conditions,Clouds,dailyrainin,SoftwareType,DateUTC
2013-01-17 00:01:00,13.8,1.8,30.30,NNW,339,1.0,4.0,58,0.00,,---,0.00,VWS V14.01,2013-01-17 06:01:00,
2013-01-17 00:06:00,13.6,1.2,30.31,NW,310,1.0,5.0,57,0.00,,---,0.00,VWS V14.01,2013-01-17 06:06:00,
2013-01-17 00:11:00,13.3,0.9,30.32,WNW,294,2.0,8.0,57,0.00,,---,0.00,VWS V14.01,2013-01-17 06:11:00,
2013-01-17 00:16:00,13.1,0.7,30.32,West,278,2.0,3.0,57,0.00,,---,0.00,VWS V14.01,2013-01-17 06:16:00,
2013-01-17 00:21:00,13.0,0.6,30.32,NW,306,1.0,4.0,57,0.00,,---,0.00,VWS V14.01,2013-01-17 06:21:00,
2013-01-17 00:26:00,12.8,0.4,30.32,NNW,339,3.0,5.0,57,0.00,,---,0.00,VWS V14.01,2013-01-17 06:26:00,
2013-01-17 00:31:00,12.7,0.7,30.33,NNW,327,1.0,4.0,58,0.00,,---,0.00,VWS V14.01,2013-01-17 06:31:00,
2013-01-17 00:36:00,12.5,0.5,30.33,NW,306,1.0,4.0,58,0.00,,---,0.00,VWS V14.01,2013-01-17 06:36:00,
2013-01-17 00:41:00,12.4,0.1,30.33,West,273,0.0,5.0,57,0.00,,---,0.00,VWS V14.01,2013-01-17 06:41:00,
2013-01-17 00:46:00,12.4,0.1,30.33,NNW,332,1.0,3.0,57,0.00,,---,0.00,VWS V14.01,2013-01-17 06:46:00,
2013-01-17 00:51:00,12.2,0.3,30.33,NNW,333,0.0,5.0,58,0.00,,---,0.00,VWS V14.01,2013-01-17 06:51:00,
2013-01-17 00:56:00,12.0,0.1,30.34,NNW,339,2.0,5.0,58,0.00,,---,0.00,VWS V14.01,2013-01-17 06:56:00,
2013-01-17 01:01:00,11.8,-0.1,30.35,WNW,284,2.0,3.0,58,0.00,,---,0.00,VWS V14.01,2013-01-17 07:01:00,
2013-01-17 01:06:00,11.7,-0.2,30.35,WNW,293,1.0,4.0,58,0.00,,---,0.00,VWS V14.01,2013-01-17 07:06:00,
2013-01-17 01:11:00,11.5,0.0,30.35,WNW,288,0.0,4.0,59,0.00,,---,0.00,VWS V14.01,2013-01-17 07:11:00,
2013-01-17 01:16:00,11.3,-0.2,30.36,WNW,292,1.0,2.0,59,0.00,,---,0.00,VWS V14.01,2013-01-17 07:16:00,
2013-01-17 01:21:00,11.2,-0.7,30.36,West,279,2.0,4.0,58,0.00,,---,0.00,VWS V14.01,2013-01-17 07:21:00,
2013-01-17 01:26:00,11.0,-0.9,30.37,West,268,0.0,4.0,58,0.00,,---,0.00,VWS V14.01,2013-01-17 07:26:00,
2013-01-17 01:31:00,10.8,-1.1,30.36,West,268,1.0,3.0,58,0.00,,---,0.00,VWS V14.01,2013-01-17 07:31:00,
2013-01-17 01:36:00,10.7,-0.8,30.37,NW,308,2.0,3.0,59,0.00,,---,0.00,VWS V14.01,2013-01-17 07:36:00,
2013-01-17 01:41:00,10.6,-0.9,30.37,WNW,301,1.0,4.0,59,0.00,,---,0.00,VWS V14.01,2013-01-17 07:41:00,
2013-01-17 01:46:00,10.4,-1.1,30.36,NW,320,1.0,2.0,59,0.00,,---,0.00,VWS V14.01,2013-01-17 07:46:00,
2013-01-17 01:51:00,10.3,-0.8,30.37,NW,317,0.0,2.0,60,0.00,,---,0.00,VWS V14.01,2013-01-17 07:51:00,
2013-01-17 01:56:00,10.2,-0.6,30.38,WNW,284,0.0,2.0,61,0.00,,---,0.00,VWS V14.01,2013-01-17 07:56:00,
2013-01-17 02:01:00,10.3,-0.5,30.38,NW,306,0.0,1.0,61,0.00,,---,0.00,VWS V14.01,2013-01-17 08:01:00,
2013-01-17 02:06:00,10.4,0.0,30.38,West,264,1.0,2.0,62,0.00,,---,0.00,VWS V14.01,2013-01-17 08:06:00,
2013-01-17 02:11:00,10.5,-0.3,30.38,West,266,0.0,3.0,61,0.00,,---,0.00,VWS V14.01,2013-01-17 08:11:00,
2013-01-17 02:16:00,10.7,-0.1,30.38,NW,319,2.0,4.0,61,0.00,,---,0.00,VWS V14.01,2013-01-17 08:16:00,
2013-01-17 02:21:00,10.8,-0.3,30.39,NW,317,1.0,5.0,60,0.00,,---,0.00,VWS V14.01,2013-01-17 08:21:00,
2013-01-17 02:26:00,10.8,-0.3,30.38,WNW,287,0.0,5.0,60,0.00,,---,0.00,VWS V14.01,2013-01-17 08:26:00,
2013-01-17 02:31:00,10.8,-0.7,30.38,NNW,335,0.0,8.0,59,0.00,,---,0.00,VWS V14.01,2013-01-17 08:31:00,
2013-01-17 02:35:00,10.7,-0.8,30.39,NW,313,1.0,8.0,59,0.00,,---,0.00,VWS V14.01,2013-01-17 08:35:00,
2013-01-17 02:40:00,10.6,-0.9,30.39,West,263,0.0,8.0,59,0.00,,---,0.00,VWS V14.01,2013-01-17 08:40:00,
2013-01-17 02:45:00,10.5,-1.0,30.38,WNW,289,0.0,1.0,59,0.00,,---,0.00,VWS V14.01,2013-01-17 08:45:00,
2013-01-17 02:50:00,10.4,-0.7,30.38,WNW,289,0.0,1.0,60,0.00,,---,0.00,VWS V14.01,2013-01-17 08:50:00,
2013-01-17 02:55:00,10.4,-0.7,30.38,WNW,284,0.0,4.0,60,0.00,,---,0.00,VWS V14.01,2013-01-17 08:55:00,
2013-01-17 03:00:00,10.5,-0.3,30.38,West,275,2.0,3.0,61,0.00,,---,0.00,VWS V14.01,2013-01-17 09:00:00,
2013-01-17 03:05:00,10.5,-0.3,30.38,NW,308,3.0,4.0,61,0.00,,---,0.00,VWS V14.01,2013-01-17 09:05:00,
2013-01-17 03:11:00,10.6,-0.2,30.39,NW,306,0.0,4.0,61,0.00,,---,0.00,VWS V14.01,2013-01-17 09:11:00,
2013-01-17 03:16:00,10.6,-0.5,30.39,West,280,2.0,4.0,60,0.00,,---,0.00,VWS V14.01,2013-01-17 09:16:00,
2013-01-17 03:20:00,10.6,-0.5,30.40,North,2,2.0,4.0,60,0.00,,---,0.00,VWS V14.01,2013-01-17 09:20:00,
2013-01-17 03:25:00,10.5,-1.0,30.39,West,261,0.0,4.0,59,0.00,,---,0.00,VWS V14.01,2013-01-17 09:25:00,
2013-01-17 03:30:00,10.3,-1.2,30.39,NW,310,1.0,3.0,59,0.00,,---,0.00,VWS V14.01,2013-01-17 09:30:00,
2013-01-17 03:35:00,10.1,-1.7,30.39,WSW,258,2.0,4.0,58,0.00,,---,0.00,VWS V14.01,2013-01-17 09:35:00,
2013-01-17 03:41:00,9.9,-1.5,30.39,WNW,284,2.0,5.0,59,0.00,,---,0.00,VWS V14.01,2013-01-17 09:41:00,
2013-01-17 03:46:00,9.8,-1.6,30.39,West,277,0.0,3.0,59,0.00,,---,0.00,VWS V14.01,2013-01-17 09:46:00,
2013-01-17 03:51:00,9.7,-1.4,30.40,West,270,1.0,3.0,60,0.00,,---,0.00,VWS V14.01,2013-01-17 09:51:00,
2013-01-17 03:56:00,9.8,-1.6,30.40,WSW,256,2.0,3.0,59,0.00,,---,0.00,VWS V14.01,2013-01-17 09:56:00,
2013-01-17 04:01:00,9.8,-2.0,30.40,WNW,289,1.0,3.0,58,0.00,,---,0.00,VWS V14.01,2013-01-17 10:01:00,
2013-01-17 04:05:00,9.9,-1.9,30.41,West,261,0.0,3.0,58,0.00,,---,0.00,VWS V14.01,2013-01-17 10:05:00,
2013-01-17 04:10:00,9.8,-2.4,30.41,West,277,1.0,4.0,57,0.00,,---,0.00,VWS V14.01,2013-01-17 10:10:00,
2013-01-17 04:15:00,9.7,-2.5,30.41,WSW,240,4.0,4.0,57,0.00,,---,0.00,VWS V14.01,2013-01-17 10:15:00,
2013-01-17 04:20:00,9.6,-2.6,30.41,NW,314,1.0,5.0,57,0.00,,---,0.00,VWS V14.01,2013-01-17 10:20:00,
2013-01-17 04:25:00,9.5,-2.3,30.41,WNW,289,1.0,5.0,58,0.00,,---,0.00,VWS V14.01,2013-01-17 10:25:00,
2013-01-17 04:30:00,9.3,-2.1,30.41,WNW,292,2.0,5.0,59,0.00,,---,0.00,VWS V14.01,2013-01-17 10:30:00,
2013-01-17 04:35:00,9.3,-2.1,30.41,NNW,329,0.0,6.0,59,0.00,,---,0.00,VWS V14.01,2013-01-17 10:35:00,
2013-01-17 04:40:00,9.2,-1.9,30.42,West,265,1.0,6.0,60,0.00,,---,0.00,VWS V14.01,2013-01-17 10:40:00,
2013-01-17 04:45:00,9.1,-1.6,30.42,West,270,2.0,2.0,61,0.00,,---,0.00,VWS V14.01,2013-01-17 10:45:00,
2013-01-17 04:50:00,9.0,-1.7,30.42,WNW,282,3.0,4.0,61,0.00,,---,0.00,VWS V14.01,2013-01-17 10:50:00,
2013-01-17 04:55:00,9.0,-1.7,30.42,WNW,282,0.0,4.0,61,0.00,,---,0.00,VWS V14.01,2013-01-17 10:55:00,
2013-01-17 05:00:00,9.0,-1.4,30.42,West,263,1.0,2.0,62,0.00,,---,0.00,VWS V14.01,2013-01-17 11:00:00,
2013-01-17 05:05:00,9.1,-1.3,30.42,West,261,2.0,4.0,62,0.00,,---,0.00,VWS V14.01,2013-01-17 11:05:00,
2013-01-17 05:10:00,9.2,-0.5,30.43,West,281,1.0,4.0,64,0.00,,---,0.00,VWS V14.01,2013-01-17 11:10:00,
2013-01-17 05:15:00,9.2,-0.5,30.43,WSW,237,1.0,4.0,64,0.00,,---,0.00,VWS V14.01,2013-01-17 11:15:00,
2013-01-17 05:20:00,9.2,-0.5,30.42,WNW,286,2.0,4.0,64,0.00,,---,0.00,VWS V14.01,2013-01-17 11:20:00,
2013-01-17 05:25:00,9.3,-0.4,30.42,WNW,299,1.0,4.0,64,0.00,,---,0.00,VWS V14.01,2013-01-17 11:25:00,
2013-01-17 05:30:00,9.3,-0.4,30.43,West,263,1.0,4.0,64,0.00,,---,0.00,VWS V14.01,2013-01-17 11:30:00,
2013-01-17 05:35:00,9.3,-0.1,30.42,WSW,251,2.0,4.0,65,0.00,,---,0.00,VWS V14.01,2013-01-17 11:35:00,
2013-01-17 05:40:00,9.2,-0.2,30.43,WSW,240,2.0,4.0,65,0.00,,---,0.00,VWS V14.01,2013-01-17 11:40:00,
2013-01-17 05:45:00,9.1,-0.3,30.43,WNW,292,1.0,3.0,65,0.00,,---,0.00,VWS V14.01,2013-01-17 11:45:00,
2013-01-17 05:50:00,9.0,0.0,30.42,West,277,0.0,3.0,66,0.00,,---,0.00,VWS V14.01,2013-01-17 11:50:00,
2013-01-17 05:55:00,8.7,-0.3,30.42,WNW,284,1.0,3.0,66,0.00,,---,0.00,VWS V14.01,2013-01-17 11:55:00,
2013-01-17 06:00:00,8.3,-0.4,30.43,WSW,251,1.0,4.0,67,0.00,,---,0.00,VWS V14.01,2013-01-17 12:00:00,
2013-01-17 06:05:00,7.8,-0.6,30.43,West,275,0.0,4.0,68,0.00,,---,0.00,VWS V14.01,2013-01-17 12:05:00,
2013-01-17 06:10:00,7.6,-0.7,30.43,West,277,0.0,4.0,68,0.00,,---,0.00,VWS V14.01,2013-01-17 12:10:00,
2013-01-17 06:16:00,7.2,-0.8,30.43,West,275,0.0,1.0,69,0.00,,---,0.00,VWS V14.01,2013-01-17 12:16:00,
2013-01-17 06:21:00,7.0,-0.7,30.43,West,275,0.0,1.0,70,0.00,,---,0.00,VWS V14.01,2013-01-17 12:21:00,
2013-01-17 06:26:00,6.8,-0.6,30.44,West,275,1.0,2.0,71,0.00,,---,0.00,VWS V14.01,2013-01-17 12:26:00,
2013-01-17 06:31:00,6.6,-0.8,30.44,WSW,251,1.0,2.0,71,0.00,,---,0.00,VWS V14.01,2013-01-17 12:31:00,
2013-01-17 06:36:00,6.4,-0.7,30.44,WSW,251,0.0,2.0,72,0.00,,---,0.00,VWS V14.01,2013-01-17 12:36:00,
2013-01-17 06:41:00,6.2,-0.9,30.43,ESE,114,2.0,2.0,72,0.00,,---,0.00,VWS V14.01,2013-01-17 12:41:00,
2013-01-17 06:46:00,6.1,-1.0,30.43,West,268,2.0,3.0,72,0.00,,---,0.00,VWS V14.01,2013-01-17 12:46:00,
2013-01-17 06:51:00,6.0,-0.8,30.43,WSW,246,2.0,3.0,73,0.00,,---,0.00,VWS V14.01,2013-01-17 12:51:00,
2013-01-17 06:56:00,5.9,-0.9,30.43,West,269,1.0,4.0,73,0.00,,---,0.00,VWS V14.01,2013-01-17 12:56:00,
2013-01-17 07:01:00,5.8,-1.0,30.43,West,263,1.0,2.0,73,0.00,,---,0.00,VWS V14.01,2013-01-17 13:01:00,
2013-01-17 07:06:00,5.8,-1.0,30.44,West,263,1.0,2.0,73,0.00,,---,0.00,VWS V14.01,2013-01-17 13:06:00,
2013-01-17 07:11:00,5.8,-1.0,30.44,WSW,252,0.0,3.0,73,0.00,,---,0.00,VWS V14.01,2013-01-17 13:11:00,
2013-01-17 07:16:00,5.8,-1.0,30.44,West,277,1.0,2.0,73,0.00,,---,0.00,VWS V14.01,2013-01-17 13:16:00,
2013-01-17 07:21:00,5.8,-1.0,30.44,West,268,0.0,4.0,73,0.00,,---,0.00,VWS V14.01,2013-01-17 13:21:00,
2013-01-17 07:25:00,5.8,-1.0,30.44,West,265,0.0,4.0,73,0.00,,---,0.00,VWS V14.01,2013-01-17 13:25:00,
2013-01-17 07:30:00,5.6,-1.2,30.44,WSW,250,1.0,4.0,73,0.00,,---,0.00,VWS V14.01,2013-01-17 13:30:00,
2013-01-17 07:35:00,5.6,-1.2,30.44,WSW,247,0.0,4.0,73,0.00,,---,0.00,VWS V14.01,2013-01-17 13:35:00,
2013-01-17 07:40:00,5.4,-1.4,30.44,WSW,239,1.0,4.0,73,0.00,,---,0.00,VWS V14.01,2013-01-17 13:40:00,
2013-01-17 07:45:00,5.4,-1.4,30.43,WSW,254,3.0,5.0,73,0.00,,---,0.00,VWS V14.01,2013-01-17 13:45:00,
2013-01-17 07:50:00,5.2,-1.5,30.44,NNW,339,1.0,5.0,73,0.00,,---,0.00,VWS V14.01,2013-01-17 13:50:00,
2013-01-17 07:55:00,5.1,-1.6,30.44,WNW,283,2.0,5.0,73,0.00,,---,0.00,VWS V14.01,2013-01-17 13:55:00,
2013-01-17 08:00:00,5.0,-1.5,30.45,SW,235,1.0,4.0,74,0.00,,---,0.00,VWS V14.01,2013-01-17 14:00:00,
2013-01-17 08:05:00,5.1,-1.4,30.45,NW,308,2.0,4.0,74,0.00,,---,0.00,VWS V14.01,2013-01-17 14:05:00,
2013-01-17 08:10:00,5.1,-1.4,30.45,West,272,2.0,5.0,74,0.00,,---,0.00,VWS V14.01,2013-01-17 14:10:00,
2013-01-17 08:15:00,5.2,-1.3,30.46,WNW,284,1.0,4.0,74,0.00,,---,0.00,VWS V14.01,2013-01-17 14:15:00,
2013-01-17 08:20:00,5.4,-1.1,30.46,NW,316,1.0,4.0,74,0.00,,---,0.00,VWS V14.01,2013-01-17 14:20:00,
2013-01-17 08:25:00,5.6,-0.9,30.47,NW,306,1.0,4.0,74,0.00,,---,0.00,VWS V14.01,2013-01-17 14:25:00,
2013-01-17 08:30:00,5.8,-0.7,30.46,West,261,0.0,5.0,74,0.00,,---,0.00,VWS V14.01,2013-01-17 14:30:00,
2013-01-17 08:35:00,6.0,-0.8,30.47,West,281,1.0,5.0,73,0.00,,---,0.00,VWS V14.01,2013-01-17 14:35:00,
2013-01-17 08:40:00,6.2,-0.6,30.46,WSW,237,0.0,5.0,73,0.00,,---,0.00,VWS V14.01,2013-01-17 14:40:00,
2013-01-17 08:45:00,6.4,-0.4,30.47,West,275,2.0,5.0,73,0.00,,---,0.00,VWS V14.01,2013-01-17 14:45:00,
2013-01-17 08:50:00,6.7,-0.1,30.47,West,280,1.0,5.0,73,0.00,,---,0.00,VWS V14.01,2013-01-17 14:50:00,
2013-01-17 08:55:00,7.1,0.0,30.47,West,261,2.0,5.0,72,0.00,,---,0.00,VWS V14.01,2013-01-17 14:55:00,
2013-01-17 09:00:00,7.3,-0.1,30.47,WSW,242,2.0,4.0,71,0.00,,---,0.00,VWS V14.01,2013-01-17 15:00:00,
2013-01-17 09:05:00,7.4,-0.3,30.47,SSW,203,3.0,5.0,70,0.00,,---,0.00,VWS V14.01,2013-01-17 15:05:00,
2013-01-17 09:10:00,7.6,-0.1,30.48,SW,228,1.0,5.0,70,0.00,,---,0.00,VWS V14.01,2013-01-17 15:10:00,
2013-01-17 09:15:00,7.8,-0.2,30.48,SW,234,3.0,4.0,69,0.00,,---,0.00,VWS V14.01,2013-01-17 15:15:00,
2013-01-17 09:20:00,7.8,-0.6,30.48,WSW,253,1.0,4.0,68,0.00,,---,0.00,VWS V14.01,2013-01-17 15:20:00,
2013-01-17 09:25:00,8.0,-0.4,30.48,WNW,284,0.0,4.0,68,0.00,,---,0.00,VWS V14.01,2013-01-17 15:25:00,
2013-01-17 09:30:00,8.3,-0.1,30.49,West,263,0.0,4.0,68,0.00,,---,0.00,VWS V14.01,2013-01-17 15:30:00,
2013-01-17 09:35:00,8.5,0.1,30.49,SW,222,2.0,5.0,68,0.00,,---,0.00,VWS V14.01,2013-01-17 15:35:00,
2013-01-17 09:40:00,8.6,-0.1,30.49,WSW,237,1.0,5.0,67,0.00,,---,0.00,VWS V14.01,2013-01-17 15:40:00,
2013-01-17 09:45:00,8.8,-0.2,30.49,WSW,251,0.0,3.0,66,0.00,,---,0.00,VWS V14.01,2013-01-17 15:45:00,
2013-01-17 09:50:00,9.2,0.5,30.49,East,80,2.0,4.0,67,0.00,,---,0.00,VWS V14.01,2013-01-17 15:50:00,
2013-01-17 09:55:00,9.4,0.3,30.49,WSW,240,3.0,7.0,66,0.00,,---,0.00,VWS V14.01,2013-01-17 15:55:00,
2013-01-17 10:00:00,9.4,-0.3,30.49,SW,232,0.0,4.0,64,0.00,,---,0.00,VWS V14.01,2013-01-17 16:00:00,
2013-01-17 10:05:00,9.8,0.4,30.49,SW,222,1.0,4.0,65,0.00,,---,0.00,VWS V14.01,2013-01-17 16:05:00,
2013-01-17 10:10:00,10.0,-0.1,30.49,SSW,199,3.0,4.0,63,0.00,,---,0.00,VWS V14.01,2013-01-17 16:10:00,
2013-01-17 10:15:00,10.1,0.0,30.49,SW,222,2.0,4.0,63,0.00,,---,0.00,VWS V14.01,2013-01-17 16:15:00,
2013-01-17 10:20:00,10.2,-0.2,30.48,SW,233,1.0,5.0,62,0.00,,---,0.00,VWS V14.01,2013-01-17 16:20:00,
2013-01-17 10:25:00,10.4,-0.4,30.49,West,264,1.0,5.0,61,0.00,,---,0.00,VWS V14.01,2013-01-17 16:25:00,
2013-01-17 10:30:00,10.6,-0.2,30.49,SSW,213,2.0,4.0,61,0.00,,---,0.00,VWS V14.01,2013-01-17 16:30:00,
2013-01-17 10:35:00,10.7,-0.4,30.49,WSW,254,0.0,8.0,60,0.00,,---,0.00,VWS V14.01,2013-01-17 16:35:00,
2013-01-17 10:40:00,11.0,-0.2,30.49,WSW,258,1.0,8.0,60,0.00,,---,0.00,VWS V14.01,2013-01-17 16:40:00,
2013-01-17 10:45:00,11.2,-0.3,30.49,West,271,1.0,3.0,59,0.00,,---,0.00,VWS V14.01,2013-01-17 16:45:00,
2013-01-17 10:50:00,11.8,0.6,30.49,WNW,289,1.0,3.0,60,0.00,,---,0.00,VWS V14.01,2013-01-17 16:50:00,
2013-01-17 10:55:00,12.3,0.7,30.49,WSW,257,0.0,4.0,59,0.00,,---,0.00,VWS V14.01,2013-01-17 16:55:00,
2013-01-17 11:00:00,12.9,1.3,30.49,NNW,345,1.0,3.0,59,0.00,,---,0.00,VWS V14.01,2013-01-17 17:00:00,
2013-01-17 11:05:00,13.2,0.8,30.49,West,259,2.0,6.0,57,0.00,,---,0.00,VWS V14.01,2013-01-17 17:05:00,
2013-01-17 11:10:00,13.5,1.1,30.49,West,273,0.0,6.0,57,0.00,,---,0.00,VWS V14.01,2013-01-17 17:10:00,
2013-01-17 11:15:00,13.8,1.8,30.49,SW,219,2.0,4.0,58,0.00,,---,0.00,VWS V14.01,2013-01-17 17:15:00,
2013-01-17 11:20:00,13.9,1.9,30.49,WSW,245,2.0,7.0,58,0.00,,---,0.00,VWS V14.01,2013-01-17 17:20:00,
2013-01-17 11:25:00,13.7,1.7,30.49,West,279,2.0,7.0,58,0.00,,---,0.00,VWS V14.01,2013-01-17 17:25:00,
2013-01-17 11:30:00,13.7,2.0,30.49,NW,311,1.0,6.0,59,0.00,,---,0.00,VWS V14.01,2013-01-17 17:30:00,
2013-01-17 11:35:00,13.4,1.8,30.48,West,274,4.0,6.0,59,0.00,,---,0.00,VWS V14.01,2013-01-17 17:35:00,
2013-01-17 11:40:00,13.2,2.3,30.48,WNW,284,2.0,6.0,61,0.00,,---,0.00,VWS V14.01,2013-01-17 17:40:00,
2013-01-17 11:45:00,13.2,3.0,30.49,WNW,283,4.0,7.0,63,0.00,,---,0.00,VWS V14.01,2013-01-17 17:45:00,
2013-01-17 11:50:00,13.3,3.8,30.49,West,277,3.0,7.0,65,0.00,,---,0.00,VWS V14.01,2013-01-17 17:50:00,
2013-01-17 11:55:00,13.2,3.7,30.49,WSW,243,1.0,7.0,65,0.00,,---,0.00,VWS V14.01,2013-01-17 17:55:00,
2013-01-17 12:00:00,13.3,4.1,30.48,NW,324,5.0,5.0,66,0.00,,---,0.00,VWS V14.01,2013-01-17 18:00:00,
2013-01-17 12:05:00,13.4,4.5,30.48,WSW,250,0.0,7.0,67,0.00,,---,0.00,VWS V14.01,2013-01-17 18:05:00,
2013-01-17 12:10:00,13.9,5.3,30.47,West,273,2.0,7.0,68,0.00,,---,0.00,VWS V14.01,2013-01-17 18:10:00,
2013-01-17 12:15:00,14.4,5.8,30.47,WNW,293,1.0,5.0,68,0.00,,---,0.00,VWS V14.01,2013-01-17 18:15:00,
2013-01-17 12:20:00,14.7,5.1,30.47,SW,228,1.0,5.0,65,0.00,,---,0.00,VWS V14.01,2013-01-17 18:20:00,
2013-01-17 12:25:00,14.8,5.2,30.48,SW,233,2.0,5.0,65,0.00,,---,0.00,VWS V14.01,2013-01-17 18:25:00,
2013-01-17 12:30:00,15.1,5.1,30.48,WNW,294,2.0,6.0,64,0.00,,---,0.00,VWS V14.01,2013-01-17 18:30:00,
2013-01-17 12:35:00,15.6,5.3,30.48,WSW,258,3.0,7.0,63,0.00,,---,0.00,VWS V14.01,2013-01-17 18:35:00,
2013-01-17 12:40:00,16.0,4.9,30.47,WSW,258,2.0,7.0,61,0.00,,---,0.00,VWS V14.01,2013-01-17 18:40:00,
2013-01-17 12:45:00,16.6,5.2,30.47,WSW,237,5.0,5.0,60,0.00,,---,0.00,VWS V14.01,2013-01-17 18:45:00,
2013-01-17 12:50:00,16.8,5.0,30.48,WSW,256,2.0,7.0,59,0.00,,---,0.00,VWS V14.01,2013-01-17 18:50:00,
2013-01-17 12:55:00,16.9,5.4,30.47,West,277,1.0,7.0,60,0.00,,---,0.00,VWS V14.01,2013-01-17 18:55:00,
2013-01-17 13:00:00,17.3,5.4,30.47,WSW,242,2.0,4.0,59,0.00,,---,0.00,VWS V14.01,2013-01-17 19:00:00,
2013-01-17 13:05:00,17.7,5.8,30.47,WSW,253,1.0,7.0,59,0.00,,---,0.00,VWS V14.01,2013-01-17 19:05:00,
2013-01-17 13:10:00,18.0,6.1,30.47,WNW,292,0.0,7.0,59,0.00,,---,0.00,VWS V14.01,2013-01-17 19:10:00,
2013-01-17 13:15:00,18.3,6.0,30.46,NW,306,2.0,8.0,58,0.00,,---,0.00,VWS V14.01,2013-01-17 19:15:00,
2013-01-17 13:20:00,18.6,6.3,30.46,WSW,249,2.0,8.0,58,0.00,,---,0.00,VWS V14.01,2013-01-17 19:20:00,
2013-01-17 13:25:00,19.1,6.8,30.46,WNW,289,1.0,8.0,58,0.00,,---,0.00,VWS V14.01,2013-01-17 19:25:00,
2013-01-17 13:30:00,19.1,6.8,30.46,West,278,3.0,8.0,58,0.00,,---,0.00,VWS V14.01,2013-01-17 19:30:00,
2013-01-17 13:35:00,19.3,7.3,30.46,West,278,2.0,8.0,59,0.00,,---,0.00,VWS V14.01,2013-01-17 19:35:00,
2013-01-17 13:40:00,19.7,7.7,30.46,WSW,246,3.0,8.0,59,0.00,,---,0.00,VWS V14.01,2013-01-17 19:40:00,
2013-01-17 13:45:00,19.8,7.8,30.46,WNW,296,4.0,5.0,59,0.00,,---,0.00,VWS V14.01,2013-01-17 19:45:00,
2013-01-17 13:50:00,19.9,8.3,30.46,WSW,258,3.0,6.0,60,0.00,,---,0.00,VWS V14.01,2013-01-17 19:50:00,
2013-01-17 13:55:00,20.0,8.7,30.46,WNW,288,2.0,7.0,61,0.00,,---,0.00,VWS V14.01,2013-01-17 19:55:00,
2013-01-17 14:00:00,20.2,9.3,30.45,WSW,251,4.0,6.0,62,0.00,,---,0.00,VWS V14.01,2013-01-17 20:00:00,
2013-01-17 14:05:00,20.3,9.4,30.45,WNW,283,3.0,11.0,62,0.00,,---,0.00,VWS V14.01,2013-01-17 20:05:00,
2013-01-17 14:10:00,20.4,9.8,30.46,West,271,3.0,11.0,63,0.00,,---,0.00,VWS V14.01,2013-01-17 20:10:00,
2013-01-17 14:15:00,20.5,9.9,30.46,WSW,255,1.0,5.0,63,0.00,,---,0.00,VWS V14.01,2013-01-17 20:15:00,
2013-01-17 14:20:00,20.8,10.2,30.45,WNW,282,3.0,6.0,63,0.00,,---,0.00,VWS V14.01,2013-01-17 20:20:00,
2013-01-17 14:25:00,20.7,9.8,30.45,WNW,284,4.0,6.0,62,0.00,,---,0.00,VWS V14.01,2013-01-17 20:25:00,
2013-01-17 14:30:00,20.6,9.7,30.45,WNW,294,4.0,7.0,62,0.00,,---,0.00,VWS V14.01,2013-01-17 20:30:00,
2013-01-17 14:35:00,20.6,10.0,30.45,NW,313,2.0,7.0,63,0.00,,---,0.00,VWS V14.01,2013-01-17 20:35:00,
2013-01-17 14:40:00,20.7,9.8,30.45,West,278,4.0,7.0,62,0.00,,---,0.00,VWS V14.01,2013-01-17 20:40:00,
2013-01-17 14:45:00,20.8,10.2,30.45,West,265,4.0,5.0,63,0.00,,---,0.00,VWS V14.01,2013-01-17 20:45:00,
2013-01-17 14:50:00,20.9,9.9,30.45,North,354,2.0,6.0,62,0.00,,---,0.00,VWS V14.01,2013-01-17 20:50:00,
2013-01-17 14:55:00,20.9,9.6,30.45,SW,233,2.0,7.0,61,0.00,,---,0.00,VWS V14.01,2013-01-17 20:55:00,
2013-01-17 15:00:00,20.9,9.6,30.45,WNW,298,1.0,6.0,61,0.00,,---,0.00,VWS V14.01,2013-01-17 21:00:00,
2013-01-17 15:05:00,20.8,9.5,30.46,WNW,283,2.0,6.0,61,0.00,,---,0.00,VWS V14.01,2013-01-17 21:05:00,
2013-01-17 15:10:00,20.8,9.5,30.46,NW,309,1.0,7.0,61,0.00,,---,0.00,VWS V14.01,2013-01-17 21:10:00,
2013-01-17 15:15:00,20.8,9.5,30.46,WNW,290,1.0,5.0,61,0.00,,---,0.00,VWS V14.01,2013-01-17 21:15:00,
2013-01-17 15:20:00,20.8,9.1,30.46,NNW,340,1.0,6.0,60,0.00,,---,0.00,VWS V14.01,2013-01-17 21:20:00,
2013-01-17 15:25:00,20.9,9.2,30.46,WNW,283,1.0,6.0,60,0.00,,---,0.00,VWS V14.01,2013-01-17 21:25:00,
2013-01-17 15:30:00,20.9,9.2,30.46,WSW,255,2.0,4.0,60,0.00,,---,0.00,VWS V14.01,2013-01-17 21:30:00,
2013-01-17 15:35:00,21.1,9.4,30.46,West,261,2.0,4.0,60,0.00,,---,0.00,VWS V14.01,2013-01-17 21:35:00,
2013-01-17 15:40:00,21.1,9.4,30.46,WSW,254,4.0,4.0,60,0.00,,---,0.00,VWS V14.01,2013-01-17 21:40:00,
2013-01-17 15:45:00,20.9,8.8,30.46,NNW,339,1.0,5.0,59,0.00,,---,0.00,VWS V14.01,2013-01-17 21:45:00,
2013-01-17 15:50:00,20.4,8.4,30.46,West,281,1.0,7.0,59,0.00,,---,0.00,VWS V14.01,2013-01-17 21:50:00,
2013-01-17 15:55:00,20.1,8.5,30.46,West,272,2.0,7.0,60,0.00,,---,0.00,VWS V14.01,2013-01-17 21:55:00,
2013-01-17 16:00:00,19.9,8.3,30.46,NW,324,2.0,6.0,60,0.00,,---,0.00,VWS V14.01,2013-01-17 22:00:00,
2013-01-17 16:05:00,19.5,8.3,30.46,WSW,245,5.0,6.0,61,0.00,,---,0.00,VWS V14.01,2013-01-17 22:05:00,
2013-01-17 16:10:00,19.2,8.0,30.47,NW,304,2.0,7.0,61,0.00,,---,0.00,VWS V14.01,2013-01-17 22:10:00,
2013-01-17 16:15:00,19.0,8.1,30.47,WNW,294,1.0,5.0,62,0.00,,---,0.00,VWS V14.01,2013-01-17 22:15:00,
2013-01-17 16:20:00,18.9,8.1,30.48,West,273,2.0,5.0,62,0.00,,---,0.00,VWS V14.01,2013-01-17 22:20:00,
2013-01-17 16:25:00,18.6,7.8,30.48,WNW,287,1.0,5.0,62,0.00,,---,0.00,VWS V14.01,2013-01-17 22:25:00,
2013-01-17 16:30:00,18.3,7.8,30.48,NW,322,3.0,8.0,63,0.00,,---,0.00,VWS V14.01,2013-01-17 22:30:00,
2013-01-17 16:35:00,18.0,7.5,30.48,West,275,1.0,8.0,63,0.00,,---,0.00,VWS V14.01,2013-01-17 22:35:00,
2013-01-17 16:40:00,17.8,7.7,30.48,West,263,2.0,9.0,64,0.00,,---,0.00,VWS V14.01,2013-01-17 22:40:00,
2013-01-17 16:45:00,17.7,7.6,30.48,NW,313,0.0,4.0,64,0.00,,---,0.00,VWS V14.01,2013-01-17 22:45:00,
2013-01-17 16:50:00,17.5,7.8,30.48,West,268,1.0,4.0,65,0.00,,---,0.00,VWS V14.01,2013-01-17 22:50:00,
2013-01-17 16:55:00,17.3,7.6,30.48,WNW,291,0.0,4.0,65,0.00,,---,0.00,VWS V14.01,2013-01-17 22:55:00,
2013-01-17 17:00:00,17.1,7.7,30.48,West,263,0.0,1.0,66,0.00,,---,0.00,VWS V14.01,2013-01-17 23:00:00,
2013-01-17 17:05:00,16.8,7.8,30.48,West,264,0.0,1.0,67,0.00,,---,0.00,VWS V14.01,2013-01-17 23:05:00,
2013-01-17 17:10:00,16.6,7.9,30.48,NW,305,0.0,3.0,68,0.00,,---,0.00,VWS V14.01,2013-01-17 23:10:00,
2013-01-17 17:15:00,16.5,7.8,30.47,West,266,1.0,2.0,68,0.00,,---,0.00,VWS V14.01,2013-01-17 23:15:00,
2013-01-17 17:20:00,16.4,8.0,30.47,West,267,0.0,2.0,69,0.00,,---,0.00,VWS V14.01,2013-01-17 23:20:00,
2013-01-17 17:25:00,16.2,7.8,30.47,West,268,0.0,2.0,69,0.00,,---,0.00,VWS V14.01,2013-01-17 23:25:00,
2013-01-17 17:30:00,16.1,8.1,30.47,West,268,0.0,1.0,70,0.00,,---,0.00,VWS V14.01,2013-01-17 23:30:00,
2013-01-17 17:35:00,16.0,8.0,30.47,West,277,0.0,2.0,70,0.00,,---,0.00,VWS V14.01,2013-01-17 23:35:00,
2013-01-17 17:40:00,15.8,7.8,30.47,West,276,0.0,2.0,70,0.00,,---,0.00,VWS V14.01,2013-01-17 23:40:00,
2013-01-17 17:45:00,15.6,7.9,30.47,West,276,0.0,1.0,71,0.00,,---,0.00,VWS V14.01,2013-01-17 23:45:00,
2013-01-17 17:50:00,15.3,7.6,30.48,West,277,0.0,1.0,71,0.00,,---,0.00,VWS V14.01,2013-01-17 23:50:00,
2013-01-17 17:55:00,15.1,7.7,30.48,West,276,0.0,1.0,72,0.00,,---,0.00,VWS V14.01,2013-01-17 23:55:00,
2013-01-17 18:00:00,15.0,7.6,30.48,WNW,284,1.0,2.0,72,0.00,,---,0.00,VWS V14.01,2013-01-18 00:00:00,
2013-01-17 18:05:00,15.0,7.9,30.48,WNW,284,1.0,2.0,73,0.00,,---,0.00,VWS V14.01,2013-01-18 00:05:00,
2013-01-17 18:10:00,14.9,7.8,30.48,WNW,284,0.0,2.0,73,0.00,,---,0.00,VWS V14.01,2013-01-18 00:10:00,
2013-01-17 18:15:00,14.8,7.7,30.48,WNW,284,0.0,0.0,73,0.00,,---,0.00,VWS V14.01,2013-01-18 00:15:00,
2013-01-17 18:20:00,14.7,7.6,30.48,WNW,284,1.0,1.0,73,0.00,,---,0.00,VWS V14.01,2013-01-18 00:20:00,
2013-01-17 18:25:00,14.7,7.9,30.47,WNW,284,0.0,2.0,74,0.00,,---,0.00,VWS V14.01,2013-01-18 00:25:00,
2013-01-17 18:30:00,14.6,7.8,30.48,WNW,284,0.0,0.0,74,0.00,,---,0.00,VWS V14.01,2013-01-18 00:30:00,
2013-01-17 18:35:00,14.3,7.6,30.48,WNW,284,0.0,0.0,74,0.00,,---,0.00,VWS V14.01,2013-01-18 00:35:00,
2013-01-17 18:40:00,14.1,7.3,30.48,WNW,284,0.0,0.0,74,0.00,,---,0.00,VWS V14.01,2013-01-18 00:40:00,
2013-01-17 18:45:00,13.8,7.1,30.48,WNW,284,0.0,0.0,74,0.00,,---,0.00,VWS V14.01,2013-01-18 00:45:00,
2013-01-17 18:50:00,13.9,7.8,30.48,WNW,284,0.0,0.0,76,0.00,,---,0.00,VWS V14.01,2013-01-18 00:50:00,
2013-01-17 18:55:00,14.0,7.8,30.48,WNW,283,0.0,0.0,76,0.00,,---,0.00,VWS V14.01,2013-01-18 00:55:00,
2013-01-17 19:00:00,14.1,7.9,30.48,WNW,283,0.0,0.0,76,0.00,,---,0.00,VWS V14.01,2013-01-18 01:00:00,
2013-01-17 19:05:00,14.1,7.9,30.48,WNW,284,0.0,0.0,76,0.00,,---,0.00,VWS V14.01,2013-01-18 01:05:00,
2013-01-17 19:10:00,14.3,8.4,30.48,WNW,284,0.0,1.0,77,0.00,,---,0.00,VWS V14.01,2013-01-18 01:10:00,
2013-01-17 19:15:00,14.5,8.6,30.48,WNW,284,0.0,0.0,77,0.00,,---,0.00,VWS V14.01,2013-01-18 01:15:00,
2013-01-17 19:20:00,14.8,8.9,30.47,WNW,284,0.0,0.0,77,0.00,,---,0.00,VWS V14.01,2013-01-18 01:20:00,
2013-01-17 19:25:00,15.0,9.1,30.48,WNW,282,1.0,1.0,77,0.00,,---,0.00,VWS V14.01,2013-01-18 01:25:00,
2013-01-17 19:30:00,15.2,9.3,30.47,WNW,282,0.0,1.0,77,0.00,,---,0.00,VWS V14.01,2013-01-18 01:30:00,
2013-01-17 19:35:00,15.3,9.4,30.47,WNW,282,0.0,1.0,77,0.00,,---,0.00,VWS V14.01,2013-01-18 01:35:00,
2013-01-17 19:40:00,15.3,9.1,30.47,WNW,282,0.0,1.0,76,0.00,,---,0.00,VWS V14.01,2013-01-18 01:40:00,
2013-01-17 19:45:00,15.2,9.0,30.47,WNW,282,0.0,0.0,76,0.00,,---,0.00,VWS V14.01,2013-01-18 01:45:00,
2013-01-17 19:50:00,15.2,9.0,30.48,WNW,282,0.0,0.0,76,0.00,,---,0.00,VWS V14.01,2013-01-18 01:50:00,
2013-01-17 19:55:00,15.1,8.9,30.47,WNW,282,0.0,0.0,76,0.00,,---,0.00,VWS V14.01,2013-01-18 01:55:00,
2013-01-17 20:00:00,15.0,8.8,30.47,WNW,282,0.0,0.0,76,0.00,,---,0.00,VWS V14.01,2013-01-18 02:00:00,
2013-01-17 20:05:00,15.0,9.1,30.46,WNW,282,0.0,0.0,77,0.00,,---,0.00,VWS V14.01,2013-01-18 02:05:00,
2013-01-17 20:10:00,15.1,9.2,30.46,West,263,0.0,2.0,77,0.00,,---,0.00,VWS V14.01,2013-01-18 02:10:00,
2013-01-17 20:15:00,15.1,9.2,30.47,West,263,1.0,1.0,77,0.00,,---,0.00,VWS V14.01,2013-01-18 02:15:00,
2013-01-17 20:20:00,15.2,9.3,30.46,WSW,240,0.0,3.0,77,0.00,,---,0.00,VWS V14.01,2013-01-18 02:20:00,
2013-01-17 20:25:00,15.2,9.3,30.47,SW,232,0.0,3.0,77,0.00,,---,0.00,VWS V14.01,2013-01-18 02:25:00,
2013-01-17 20:30:00,15.3,9.4,30.47,SW,219,1.0,3.0,77,0.00,,---,0.00,VWS V14.01,2013-01-18 02:30:00,
2013-01-17 20:35:00,15.4,9.5,30.47,West,275,0.0,3.0,77,0.00,,---,0.00,VWS V14.01,2013-01-18 02:35:00,
2013-01-17 20:40:00,15.4,9.5,30.46,WSW,249,1.0,3.0,77,0.00,,---,0.00,VWS V14.01,2013-01-18 02:40:00,
2013-01-17 20:45:00,15.5,9.6,30.46,WNW,291,0.0,2.0,77,0.00,,---,0.00,VWS V14.01,2013-01-18 02:45:00,
2013-01-17 20:50:00,15.6,9.7,30.46,WNW,291,0.0,2.0,77,0.00,,---,0.00,VWS V14.01,2013-01-18 02:50:00,
2013-01-17 20:55:00,15.7,9.8,30.46,SW,227,2.0,2.0,77,0.00,,---,0.00,VWS V14.01,2013-01-18 02:55:00,
2013-01-17 21:00:00,15.8,9.9,30.46,SW,226,2.0,3.0,77,0.00,,---,0.00,VWS V14.01,2013-01-18 03:00:00,
2013-01-17 21:05:00,15.9,10.0,30.46,WSW,245,0.0,3.0,77,0.00,,---,0.00,VWS V14.01,2013-01-18 03:05:00,
2013-01-17 21:10:00,16.0,10.1,30.46,WSW,245,2.0,3.0,77,0.00,,---,0.00,VWS V14.01,2013-01-18 03:10:00,
2013-01-17 21:15:00,16.0,10.1,30.46,WSW,240,0.0,1.0,77,0.00,,---,0.00,VWS V14.01,2013-01-18 03:15:00,
2013-01-17 21:20:00,16.1,10.2,30.46,WSW,240,0.0,2.0,77,0.00,,---,0.00,VWS V14.01,2013-01-18 03:20:00,
2013-01-17 21:25:00,16.1,10.2,30.46,WSW,240,0.0,2.0,77,0.00,,---,0.00,VWS V14.01,2013-01-18 03:25:00,
2013-01-17 21:30:00,16.1,10.2,30.46,WSW,240,0.0,0.0,77,0.00,,---,0.00,VWS V14.01,2013-01-18 03:30:00,
2013-01-17 21:35:00,16.2,10.3,30.45,WSW,240,0.0,0.0,77,0.00,,---,0.00,VWS V14.01,2013-01-18 03:35:00,
2013-01-17 21:40:00,16.2,10.3,30.45,WSW,240,0.0,0.0,77,0.00,,---,0.00,VWS V14.01,2013-01-18 03:40:00,
2013-01-17 21:45:00,16.1,10.2,30.45,WSW,240,0.0,2.0,77,0.00,,---,0.00,VWS V14.01,2013-01-18 03:45:00,
2013-01-17 21:50:00,16.1,10.2,30.44,WSW,240,0.0,2.0,77,0.00,,---,0.00,VWS V14.01,2013-01-18 03:50:00,
2013-01-17 21:55:00,16.1,10.2,30.44,WSW,240,0.0,2.0,77,0.00,,---,0.00,VWS V14.01,2013-01-18 03:55:00,
2013-01-17 22:00:00,16.2,10.3,30.44,WSW,240,0.0,1.0,77,0.00,,---,0.00,VWS V14.01,2013-01-18 04:00:00,
2013-01-17 22:05:00,16.1,10.5,30.43,WSW,240,0.0,1.0,78,0.00,,---,0.00,VWS V14.01,2013-01-18 04:05:00,
2013-01-17 22:10:00,16.2,10.6,30.43,WSW,240,0.0,1.0,78,0.00,,---,0.00,VWS V14.01,2013-01-18 04:10:00,
2013-01-17 22:15:00,16.2,10.6,30.43,WSW,240,0.0,2.0,78,0.00,,---,0.00,VWS V14.01,2013-01-18 04:15:00,
2013-01-17 22:20:00,16.3,10.7,30.43,WSW,240,0.0,2.0,78,0.00,,---,0.00,VWS V14.01,2013-01-18 04:20:00,
2013-01-17 22:25:00,16.2,10.6,30.43,WSW,240,1.0,2.0,78,0.00,,---,0.00,VWS V14.01,2013-01-18 04:25:00,
2013-01-17 22:30:00,16.3,10.7,30.43,SW,228,1.0,3.0,78,0.00,,---,0.00,VWS V14.01,2013-01-18 04:30:00,
2013-01-17 22:35:00,16.3,10.7,30.43,SW,226,0.0,3.0,78,0.00,,---,0.00,VWS V14.01,2013-01-18 04:35:00,
2013-01-17 22:40:00,16.3,10.7,30.43,SW,225,0.0,3.0,78,0.00,,---,0.00,VWS V14.01,2013-01-18 04:40:00,
2013-01-17 22:45:00,16.4,10.8,30.42,WSW,246,1.0,2.0,78,0.00,,---,0.00,VWS V14.01,2013-01-18 04:45:00,
2013-01-17 22:50:00,16.4,11.0,30.42,West,262,0.0,2.0,79,0.00,,---,0.00,VWS V14.01,2013-01-18 04:50:00,
2013-01-17 22:55:00,16.5,11.1,30.42,WSW,238,0.0,3.0,79,0.00,,---,0.00,VWS V14.01,2013-01-18 04:55:00,
2013-01-17 23:01:00,16.6,11.2,30.42,WSW,243,0.0,1.0,79,0.00,,---,0.00,VWS V14.01,2013-01-18 05:01:00,
2013-01-17 23:02:00,16.6,11.2,30.41,WSW,243,0.0,1.0,79,0.00,,---,0.00,VWS V14.01,2013-01-18 05:02:00,
2013-01-17 23:07:00,16.6,11.2,30.41,South,191,0.0,4.0,79,0.00,,---,0.00,VWS V14.01,2013-01-18 05:07:00,
2013-01-17 23:12:00,16.7,11.3,30.41,SW,216,2.0,4.0,79,0.00,,---,0.00,VWS V14.01,2013-01-18 05:12:00,
2013-01-17 23:17:00,16.7,11.3,30.41,SW,216,0.0,1.0,79,0.00,,---,0.00,VWS V14.01,2013-01-18 05:17:00,
2013-01-17 23:22:00,16.8,11.4,30.41,SW,216,0.0,1.0,79,0.00,,---,0.00,VWS V14.01,2013-01-18 05:22:00,
2013-01-17 23:27:00,16.8,11.4,30.41,East,97,0.0,2.0,79,0.00,,---,0.00,VWS V14.01,2013-01-18 05:27:00,
2013-01-17 23:32:00,16.8,11.4,30.41,ENE,69,0.0,1.0,79,0.00,,---,0.00,VWS V14.01,2013-01-18 05:32:00,
2013-01-17 23:37:00,16.9,11.2,30.41,ENE,69,0.0,2.0,78,0.00,,---,0.00,VWS V14.01,2013-01-18 05:37:00,
2013-01-17 23:42:00,16.9,11.2,30.41,WNW,299,1.0,2.0,78,0.00,,---,0.00,VWS V14.01,2013-01-18 05:42:00,
2013-01-17 23:47:00,17.0,11.3,30.40,NNW,333,1.0,1.0,78,0.00,,---,0.00,VWS V14.01,2013-01-18 05:47:00,
2013-01-17 23:52:00,17.1,11.4,30.40,North,356,0.0,1.0,78,0.00,,---,0.00,VWS V14.01,2013-01-18 05:52:00,
2013-01-17 23:57:00,17.1,11.4,30.40,North,356,0.0,1.0,78,0.00,,---,0.00,VWS V14.01,2013-01-18 05:57:00,